Location: Lansingburgh
(42.7845°N, 73.6696°W)
Time: 01:17:37
(UTC+00:00)

ATLAS CENTAUR R/B - Pass Details

Date: 24 January 2020
Orbit: 228 x 6383 km, 57.3° (Epoch: 19 February)

Event Time Altitude Azimuth Distance (km) Brightness Sun altitude
Rises 21:53:25 0° 253° (WSW) 2,747 7.8 -0.3°
Reaches altitude 10° 21:55:00 10° 260° (W) 2,151 6.5 -0.5°
Maximum altitude 21:59:42 50° 337° (NNW) 1,470 4.0 -1.3°
Drops below altitude 10° 22:12:07 10° 50° (NE) 5,506 6.3 -3.4°
Enters shadow 22:17:00 - 54° (NE) 7,085 6.8 -4.2°
